Location: Home
(42.5358°N, 72.7383°W)
Time: 16:38:50
(UTC-05:00)

Tiros 1 - Pass Details

Date: 01 December 2021
Orbit: 629 x 664 km, 48.4° (Epoch: 18 January)

Event Time Altitude Azimuth Distance (km) Brightness Sun altitude
Rises 17:21:59 0° 183° (S) 2,904 10.8 -11.4°
Reaches altitude 10° 17:25:43 10° 153° (SSE) 2,008 9.6 -12.1°
Maximum altitude 17:27:27 12° 130° (SE) 1,884 9.2 -12.4°
Enters shadow 17:28:52 11° 112° (ESE) 1,976 9.2 -12.6°
Drops below altitude 10° 17:29:12 10° 108° (ESE) 2,020 - -12.7°
Sets 17:32:57 0° 78° (ENE) 2,943 - -13.4°
